User: anonymous   Login
Location: Unspecified
(0.0000°N, 0.0000°E)
Time: 18:47:18
(UTC+00:00)
Language:

HO-68 - Orbit

View from above orbital plane
View from above orbital plane
View from above satellite
View from above satellite

Ground track
Ground track

The orbit data is extracted from the following two-line orbital elements,

1 36122U 09072B   21340.67819949 -.00000049  00000-0 -16940-4 0  9994
2 36122 100.1565 314.3638 0008104  66.7708 293.4258 13.16364220575445
Epoch (UTC): 06 December 2021 16:16:36
Eccentricity: 0.0008104
inclination: 100.1565°
perigee height: 1192 km
apogee height: 1205 km
right ascension of ascending node: 314.3638°
argument of perigee: 66.7708°
revolutions per day: 13.16364220
mean anomaly at epoch: 293.4258°
orbit number at epoch: 57544

The dashed part of the orbit path shows where the satellite is in the earth's shadow,  

DLR